Wind_Speed
50 49 48 48 48 48 47 46 44 42 40 40 41 41 41 41 40 40 39 37 38 40 45 50 54 57 58 59 60 60 61 62 61 59 56 54 53 52
40 39 39 38 37 36 36 36 36 35 32 29 30 31 32 32 31 30 29 28 28 30 32 36 39 43 47 50 52 55 56 57 56 55 53 51 49 48
36 35 33 32 31 30 31 32 32 31 28 25 24 24 23 22 22 22 22 22 22 23 24 26 29 32 37 42 47 49 51 51 50 48 47 45 43 43
32 31 29 28 28 28 29 28 28 27 26 21 19 19 18 17 17 17 16 16 17 18 19 21 23 27 30 33 36 38 38 38 37 37 37 38 39 39
28 27 25 25 25 25 24 24 24 23 22 18 16 17 16 16 15 14 14 15 15 16 17 17 17 18 20 21 23 27 28 28 29 29 30 31 32 33
22 21 20 20 20 21 22 22 21 19 16 14 15 15 15 15 15 14 14 13 14 16 16 16 14 14 18 24 25 26 27 25 24 25 25 27 28 29
16 15 15 16 17 18 18 17 15 13 11 12 13 13 15 16 15 14 14 14 15 16 16 15 18 21 24 25 28 30 31 30 27 26 26 26 27 27
14 13 13 13 14 15 15 12 9 7 7 9 11 12 14 16 15 13 12 12 14 15 15 15 19 28 28 28 32 31 30 31 28 27 27 26 25 23
13 13 12 13 13 13 12 7 5 4 5 7 10 12 14 14 13 12 12 12 13 14 15 15 17 26 32 32 30 27 25 24 23 21 19 20 19 19
13 13 13 12 11 11 9 4 2 5 7 10 12 14 15 14 12 12 13 13 13 14 15 14 18 25 31 31 30 26 23 21 18 15 15 15 16 17
13 12 12 11 9 8 6 3 4 7 10 12 14 15 16 14 13 12 13 14 14 14 14 15 20 25 28 30 29 25 22 19 16 15 14 14 14 15
13 12 10 9 6 5 2 2 5 9 11 13 15 17 16 15 15 15 15 15 15 15 16 17 21 24 25 26 25 22 19 17 16 15 14 14 14 14
13 11 8 6 3 4 5 5 7 10 11 13 15 16 17 18 17 16 16 16 16 17 17 19 21 22 22 22 21 20 19 17 16 15 14 14 14 15
13 11 8 4 3 7 8 8 9 11 12 13 14 15 16 19 18 18 18 18 19 19 18 18 19 20 20 21 20 19 18 16 15 14 14 16 18 18
12 12 11 7 6 10 11 11 12 12 13 14 14 16 18 19 18 19 20 19 19 17 15 15 15 16 17 18 18 18 17 16 15 16 19 21 20 19
10 13 14 12 10 12 14 14 14 14 14 15 15 17 20 20 20 20 20 19 17 14 13 12 13 14 14 15 17 18 18 18 20 22 22 21 21 22
8 12 16 17 15 15 16 17 16 16 16 16 18 19 20 22 22 22 21 19 16 13 12 11 12 11 12 15 18 20 22 24 24 23 22 23 24 23
6 10 16 19 19 17 18 18 18 17 17 18 19 20 22 23 23 22 21 18 15 13 13 13 12 12 13 16 20 24 26 26 24 23 23 25 24 22
5 7 13 20 21 20 19 18 18 17 17 19 21 22 24 24 23 22 20 17 15 14 16 17 16 16 16 19 24 27 27 26 24 23 24 25 24 20
5 5 10 17 22 22 20 18 17 17 17 19 22 24 26 25 24 22 19 17 16 17 19 20 21 21 22 24 26 26 26 26 25 25 24 23 22 18
5 5 7 14 21 23 22 20 18 17 18 19 21 24 26 26 24 22 20 18 19 21 22 23 24 25 26 28 28 26 25 25 25 24 22 20 18 16
5 4 5 10 18 23 23 22 20 19 19 19 21 23 24 25 24 22 21 21 23 25 26 27 27 29 30 31 28 26 25 25 25 23 21 18 16 14
6 4 4 9 16 22 24 24 23 21 21 21 21 22 23 24 23 23 23 25 26 26 27 27 28 29 30 31 30 28 26 24 23 21 19 17 15 14
Wind_Direction
290 289 287 286 284 284 284 284 285 284 280 276 274 273 270 269 267 266 265 263 259 254 250 248 247 247 248 248 248 248 248 248 249 249 249 249 250 250
293 292 290 288 287 286 286 286 286 286 284 279 273 269 267 265 264 264 263 261 256 252 248 246 245 244 244 243 242 242 242 242 243 243 245 246 247 247
296 294 293 290 289 289 289 288 286 286 286 281 274 267 265 261 258 256 256 252 248 246 243 241 241 241 240 240 239 238 238 239 240 241 240 240 241 242
297 296 295 293 292 292 291 290 287 286 285 278 264 259 255 250 248 247 245 241 238 238 238 238 237 235 232 229 227 227 225 225 225 227 228 231 234 237
297 296 296 296 297 295 294 293 289 285 280 270 252 246 243 240 238 235 233 232 232 233 235 234 229 220 210 194 192 187 190 197 203 208 215 223 229 234
301 298 297 298 300 299 298 295 290 283 272 254 240 238 235 229 223 224 226 230 231 232 228 221 216 206 185 169 169 173 177 185 193 201 208 216 223 229
307 304 302 303 307 307 303 298 291 279 258 239 230 226 221 216 216 218 222 227 227 222 217 208 193 181 172 171 173 178 180 184 188 195 204 211 218 226
310 309 308 311 311 314 311 302 288 268 242 225 217 212 207 202 205 208 213 214 212 212 207 199 186 179 182 182 179 181 185 189 192 197 204 209 215 221
304 306 308 310 310 315 318 303 278 237 199 188 186 183 183 184 189 196 198 195 194 196 195 188 178 179 180 181 182 185 187 191 197 205 211 213 217 224
299 301 303 304 301 308 316 302 237 190 178 171 168 168 169 171 180 182 178 175 173 181 188 183 173 174 178 183 186 190 191 195 204 213 214 216 218 224
288 295 302 303 292 294 297 283 189 176 171 169 168 166 164 161 161 160 159 161 165 175 179 171 165 167 173 179 185 187 192 199 207 214 217 218 219 222
273 280 294 303 286 266 239 175 167 168 167 168 168 166 162 160 158 156 155 158 161 165 167 160 158 162 168 174 181 188 194 199 204 209 212 215 217 214
262 260 272 296 268 198 165 151 151 160 167 168 169 168 167 164 159 160 158 157 157 157 156 154 156 161 169 177 184 189 194 199 202 206 211 208 194 175
250 239 237 252 212 176 163 152 144 145 156 163 164 164 166 168 166 162 157 153 153 152 152 155 161 168 175 182 187 190 194 198 203 205 190 172 161 157
241 221 210 203 185 172 167 160 150 144 148 157 161 161 164 168 168 163 156 151 152 155 158 163 169 175 180 182 184 187 192 196 194 175 161 155 155 155
238 211 196 185 177 173 173 169 159 151 149 150 153 159 164 164 164 160 157 157 158 161 165 170 175 179 184 187 187 187 184 175 164 157 154 155 154 153
243 209 193 183 176 172 174 175 171 164 159 155 155 158 162 163 162 161 161 162 165 170 176 179 183 189 195 195 188 179 168 159 155 155 155 155 154 154
236 210 194 185 178 173 173 177 180 179 177 172 167 165 166 166 165 163 164 168 175 182 183 184 187 191 192 188 179 166 159 155 155 157 158 157 157 156
217 206 194 187 181 176 175 176 180 183 184 183 180 177 173 172 172 174 177 183 190 192 186 182 181 179 180 175 165 160 157 157 157 158 161 162 160 159
192 194 192 188 184 179 177 176 178 181 183 183 183 183 183 182 183 186 191 198 200 194 184 179 175 171 166 162 161 161 162 161 160 161 164 167 167 166
161 174 183 187 186 182 179 177 175 175 176 179 181 184 187 190 193 196 201 204 198 188 179 175 171 167 162 160 161 163 164 164 163 164 166 170 173 176
120 149 170 180 184 183 180 177 174 172 170 171 175 181 185 189 193 197 197 195 188 180 176 174 172 168 164 163 163 166 168 168 167 167 169 174 180 186
87 104 146 172 181 184 182 178 175 173 170 168 169 173 177 180 182 183 183 181 178 175 173 173 172 171 171 169 167 168 171 172 171 171 174 179 185 189
Height
5588 5584 5581 5579 5576 5574 5571 5568 5566 5564 5565 5565 5563 5563 5563 5563 5564 5565 5567 5570 5573 5576 5581 5586 5593 5601 5609 5618 5626 5634 5642 5650 5657 5663 5669 5675 5681 5687
5577 5573 5570 5567 5565 5563 5560 5558 5555 5553 5553 5554 5553 5552 5552 5553 5555 5556 5558 5561 5563 5566 5570 5575 5580 5587 5594 5602 5611 5619 5627 5635 5642 5649 5656 5662 5669 5676
5567 5564 5561 5558 5556 5554 5552 5549 5547 5545 5544 5545 5544 5545 5545 5547 5548 5550 5552 5555 5557 5560 5563 5567 5572 5577 5582 5589 5596 5604 5613 5621 5629 5637 5644 5652 5659 5666
5559 5556 5553 5551 5549 5546 5544 5541 5539 5538 5537 5537 5538 5539 5540 5542 5544 5546 5548 5551 5554 5557 5559 5562 5565 5568 5572 5578 5584 5592 5601 5610 5619 5627 5635 5644 5651 5657
5552 5549 5546 5544 5542 5539 5537 5534 5532 5531 5531 5531 5532 5534 5536 5538 5540 5543 5546 5549 5552 5554 5556 5558 5560 5562 5566 5571 5577 5585 5595 5605 5614 5622 5630 5638 5645 5651
5545 5543 5541 5539 5537 5534 5531 5529 5527 5525 5525 5526 5528 5530 5533 5535 5538 5542 5545 5548 5550 5552 5554 5556 5558 5562 5565 5571 5578 5586 5595 5604 5612 5619 5626 5634 5640 5645
5541 5539 5537 5535 5532 5530 5527 5524 5522 5521 5521 5522 5525 5527 5530 5533 5537 5540 5543 5546 5548 5550 5553 5556 5559 5564 5570 5575 5581 5588 5596 5604 5611 5618 5624 5630 5636 5640
5538 5536 5534 5532 5529 5527 5524 5521 5519 5519 5519 5520 5522 5525 5528 5532 5536 5539 5542 5544 5547 5549 5552 5556 5560 5566 5572 5578 5584 5591 5597 5604 5610 5616 5622 5627 5632 5636
5536 5533 5531 5529 5526 5524 5522 5519 5518 5517 5518 5520 5522 5524 5528 5532 5535 5538 5541 5544 5547 5550 5553 5556 5559 5565 5572 5579 5586 5592 5599 5604 5610 5615 5620 5624 5629 5633
5533 5530 5528 5526 5524 5522 5520 5518 5517 5517 5518 5520 5522 5525 5528 5532 5535 5538 5541 5544 5547 5551 5554 5557 5561 5566 5573 5580 5587 5593 5599 5604 5609 5614 5618 5622 5625 5629
5529 5527 5525 5523 5521 5519 5518 5517 5517 5517 5518 5520 5523 5526 5529 5532 5536 5539 5542 5545 5548 5552 5556 5559 5564 5569 5575 5582 5588 5594 5599 5603 5608 5613 5616 5619 5622 5625
5524 5523 5522 5520 5518 5517 5517 5517 5517 5518 5519 5521 5524 5526 5530 5533 5536 5540 5544 5547 5550 5554 5557 5562 5567 5572 5578 5583 5589 5594 5599 5603 5607 5611 5614 5616 5619 5622
5518 5519 5518 5517 5516 5516 5516 5517 5517 5518 5520 5522 5525 5528 5531 5535 5538 5542 5545 5549 5553 5557 5561 5565 5570 5575 5581 5585 5590 5594 5599 5602 5606 5609 5611 5614 5617 5621
5513 5513 5514 5514 5514 5515 5516 5517 5518 5520 5521 5524 5527 5530 5534 5537 5541 5544 5547 5551 5555 5560 5564 5569 5573 5577 5582 5586 5590 5594 5598 5601 5604 5607 5609 5613 5616 5621
5507 5508 5510 5511 5512 5513 5515 5517 5519 5521 5523 5525 5528 5532 5535 5539 5543 5546 5550 5554 5559 5563 5567 5571 5575 5578 5582 5585 5589 5593 5596 5599 5602 5606 5610 5614 5618 5622
5502 5504 5506 5508 5510 5512 5514 5517 5520 5522 5524 5527 5530 5533 5536 5540 5545 5549 5553 5558 5562 5565 5569 5572 5575 5579 5582 5585 5588 5591 5595 5599 5603 5607 5611 5616 5620 5624
5499 5500 5502 5505 5508 5510 5513 5516 5519 5522 5525 5528 5531 5534 5538 5542 5546 5550 5555 5559 5563 5567 5570 5573 5575 5578 5581 5584 5587 5591 5595 5599 5605 5609 5613 5617 5621 5625
5496 5497 5499 5502 5505 5508 5511 5514 5518 5521 5525 5528 5532 5535 5539 5543 5547 5552 5556 5560 5563 5566 5569 5572 5575 5578 5581 5584 5588 5592 5597 5602 5606 5611 5615 5620 5624 5627
5494 5495 5496 5499 5502 5506 5509 5513 5516 5520 5523 5527 5531 5535 5539 5544 5548 5552 5556 5560 5563 5566 5568 5572 5575 5578 5582 5586 5590 5595 5600 5604 5609 5613 5618 5622 5625 5629
5492 5493 5495 5497 5500 5504 5508 5511 5515 5518 5522 5525 5530 5534 5539 5543 5547 5551 5555 5559 5562 5565 5568 5571 5575 5579 5583 5588 5594 5598 5603 5607 5611 5615 5620 5623 5627 5630
5492 5493 5494 5496 5499 5502 5506 5510 5514 5518 5521 5524 5528 5533 5537 5542 5546 5550 5554 5558 5561 5564 5568 5573 5577 5581 5586 5591 5596 5601 5605 5609 5613 5617 5621 5625 5628 5630
5492 5493 5494 5495 5498 5502 5505 5510 5514 5518 5521 5524 5528 5532 5536 5541 5545 5549 5553 5557 5561 5565 5569 5573 5578 5582 5587 5592 5597 5602 5607 5611 5614 5618 5622 5625 5628 5631
5494 5494 5494 5495 5498 5501 5505 5509 5514 5518 5522 5525 5529 5532 5537 5541 5545 5549 5553 5557 5561 5565 5570 5575 5580 5585 5589 5593 5598 5603 5608 5612 5615 5619 5622 5624 5627 5630